This is the latest recevied weather packets stored in our database for station/object WD4HMR. If no packets are shown the sender has not sent any weather packets the latest 10 day(s).
| Time | Temp. | Humidity | Pressure | Rain* | Wind** | Luminosity | Snow |
|---|---|---|---|---|---|---|---|
| 1777940104 | 23.89° C | 46% | 1014.7 hPa | 0 mm | - | 104 W/m² | - |
| 1777939503 | 24.44° C | 44% | 1014.6 hPa | 0 mm | - | 150 W/m² | - |
| 1777939204 | 25° C | 42% | 1014.6 hPa | 0 mm | - | 182 W/m² | - |
| 1777938603 | 25.56° C | 40% | 1014.7 hPa | 0 mm | - | 335 W/m² | - |
| 1777938304 | 25.56° C | 40% | 1014.7 hPa | 0 mm | - | 393 W/m² | - |
| 1777938004 | 25.56° C | 40% | 1014.7 hPa | 0 mm | - | 413 W/m² | - |
| 1777936504 | 26.67° C | 39% | 1014.8 hPa | 0 mm | - | 517 W/m² | - |
| 1777936204 | 26.67° C | 38% | 1014.9 hPa | 0 mm | - | 538 W/m² | - |
| 1777935904 | 26.67° C | 40% | 1014.9 hPa | 0 mm | - | 560 W/m² | - |
| 1777935604 | 26.67° C | 40% | 1014.9 hPa | 0 mm | - | 581 W/m² | - |
| 1777935004 | 26.67° C | 38% | 1014.9 hPa | 0 mm | - | 624 W/m² | - |
| 1777934704 | 26.67° C | 38% | 1014.9 hPa | 0 mm | - | 646 W/m² | - |
| 1777934403 | 26.67° C | 38% | 1014.9 hPa | 0 mm | - | 668 W/m² | - |
| 1777933804 | 26.67° C | 38% | 1015 hPa | 0 mm | - | 711 W/m² | - |
| 1777933503 | 26.67° C | 38% | 1015 hPa | 0 mm | - | 733 W/m² | - |
| 1777933203 | 26.67° C | 38% | 1015.1 hPa | 0 mm | - | 754 W/m² | - |
| 1777932304 | 26.11° C | 40% | 1015.1 hPa | 0 mm | - | 818 W/m² | - |
| 1777932004 | 26.11° C | 40% | 1015.3 hPa | 0 mm | - | 839 W/m² | - |
| 1777931404 | 26.11° C | 38% | 1015.2 hPa | 0 mm | - | 881 W/m² | - |
| 1777931104 | 26.11° C | 40% | 1015.2 hPa | 0 mm | - | 901 W/m² | - |
| 1777929304 | 25.56° C | 40% | 1015.4 hPa | 0 mm | - | 1018 W/m² | - |
| 1777928705 | 26.11° C | 38% | 1015.4 hPa | 0 mm | - | 1054 W/m² | - |
| 1777927805 | 25.56° C | 42% | 1015.5 hPa | 0 mm | - | 1105 W/m² | - |
| 1777927503 | 25.56° C | 42% | 1015.5 hPa | 0 mm | - | 1121 W/m² | - |
| 1777927204 | 26.11° C | 42% | 1015.5 hPa | 0 mm | - | 1137 W/m² | - |
* Rain latest hour (hover to see other rain measurements)
** Current wind speed in m/s (hover to see current wind gust speed)